Retour au catalogue

GOES 1

SMS-C

ActifMétéoGEO
NORAD 8366·PAYLOAD·🇺🇸 United States

Lancé Oct 16, 1975 depuis Cape Canaveral Space Force Station

Loading…

TLE

FraisSource: Space-Track

Époque: Sep 14, 2026, 13:32 UTC

1 08366U 75100A   26257.56408561  .00000031  00000-0  00000-0 0  9997
2 08366   4.3855 276.3505 0005194 333.2967 180.4096  1.00291481185963

Suivez GOES 1 en temps réel avec AllMySat

Download on the App Store